K5TWC Weather Reports


time (UTC)temp
F
wind
direction
speed
knots
gust
knots
rain 1hr
in
rain 24hr
in
rain mn
in
humidity
%
barometer
mb
20260503210510 85 360 0.0 9.6 0.00 0.00 0.00 33 1017.7
20260503210029 85 246 0.9 7.8 0.00 0.00 0.00 32 1017.8
20260503205509 85 220 0.9 7.8 0.00 0.00 0.00 33 1017.8
20260503205005 85 288 0.0 7.8 0.00 0.00 0.00 32 1017.9
20260503204542 85 162 1.7 7.8 0.00 0.00 0.00 32 1018.0
20260503204009 85 141 0.0 7.8 0.00 0.00 0.00 33 1017.9
20260503203510 86 221 1.7 7.0 0.00 0.00 0.00 32 1018.1
20260503203026 86 214 0.0 5.2 0.00 0.00 0.00 33 1018.3
20260503202504 86 250 0.0 7.8 0.00 0.00 0.00 32 1018.3
20260503202005 85 232 0.9 7.8 0.00 0.00 0.00 34 1018.5
20260503201514 85 238 0.0 8.7 0.00 0.00 0.00 35 1018.6
20260503201007 84 229 0.9 10.4 0.00 0.00 0.00 34 1018.7
20260503200507 85 360 6.1 10.4 0.00 0.00 0.00 35 1018.7
20260503200019 85 281 0.9 12.2 0.00 0.00 0.00 36 1018.8
20260503195506 85 360 3.5 12.2 0.00 0.00 0.00 35 1018.9
20260503195009 85 243 2.6 9.6 0.00 0.00 0.00 35 1018.9
20260503194523 85 241 1.7 9.6 0.00 0.00 0.00 35 1018.9
20260503194008 85 360 0.9 7.8 0.00 0.00 0.00 34 1019.0
20260503193508 85 360 1.7 9.6 0.00 0.00 0.00 35 1019.1
20260503193033 84 250 2.6 9.6 0.00 0.00 0.00 34 1019.2
20260503192510 84 225 0.9 11.3 0.00 0.00 0.00 35 1019.2
20260503192013 84 241 1.7 11.3 0.00 0.00 0.00 36 1019.2
20260503191525 84 360 6.1 10.4 0.00 0.00 0.00 37 1019.3
20260503191010 83 360 0.0 11.3 0.00 0.00 0.00 39 1019.3
20260503190505 83 253 1.7 11.3 0.00 0.00 0.00 36 1019.3
20260503190015 83 360 5.2 12.2 0.00 0.00 0.00 38 1019.4
20260503185507 83 360 4.3 12.2 0.00 0.00 0.00 37 1019.4
20260503185007 83 360 4.3 9.6 0.00 0.00 0.00 37 1019.6
20260503184533 83 246 4.3 8.7 0.00 0.00 0.00 36 1019.6
20260503184008 83 215 1.7 7.8 0.00 0.00 0.00 38 1019.6
20260503183507 83 360 0.9 10.4 0.00 0.00 0.00 38 1019.8
20260503183025 83 360 5.2 10.4 0.00 0.00 0.00 38 1019.9
20260503182507 83 360 0.9 8.7 0.00 0.00 0.00 39 1020.0
20260503182009 82 360 4.3 13.9 0.00 0.00 0.00 39 1020.1
20260503181526 82 144 3.5 13.9 0.00 0.00 0.00 38 1020.2
20260503181006 82 283 4.3 10.4 0.00 0.00 0.00 40 1020.3
20260503180508 82 221 1.7 9.6 0.00 0.00 0.00 39 1020.5
20260503180026 82 205 1.7 9.6 0.00 0.00 0.00 40 1020.5
20260503175503 82 236 1.7 11.3 0.00 0.00 0.00 41 1020.6
20260503175008 82 158 0.9 12.2 0.00 0.00 0.00 41 1020.6
20260503174518 82 360 1.7 12.2 0.00 0.00 0.00 43 1020.7
20260503174008 82 360 2.6 12.2 0.00 0.00 0.00 43 1020.8
20260503173507 82 237 0.0 7.8 0.00 0.00 0.00 44 1020.9
20260503173018 81 226 0.9 9.6 0.00 0.00 0.00 43 1021.0
20260503172508 80 360 1.7 10.4 0.00 0.00 0.00 45 1021.0
20260503172007 81 360 3.5 12.2 0.00 0.00 0.00 44 1021.1
20260503171526 80 249 6.1 12.2 0.00 0.00 0.00 43 1021.1
20260503171006 80 271 1.7 11.3 0.00 0.00 0.00 45 1021.3
20260503170511 80 360 6.1 13.0 0.00 0.00 0.00 44 1021.3
20260503151006 76 227 2.6 8.7 0.00 0.00 0.00 51 1021.8
20260503150503 76 360 0.9 7.0 0.00 0.00 0.00 51 1021.8
20260503131005 66 227 0.0 0.0 0.00 0.00 0.00 66 1021.6
20260503130503 65 227 0.0 0.0 0.00 0.00 0.00 68 1021.6
20260503110504 54 227 0.0 0.0 0.00 0.00 0.00 77 1020.7
20260503090507 57 227 0.0 0.0 0.00 0.00 0.00 71 1020.4
20260503081520 59 227 0.0 1.7 0.00 0.00 0.00 68 1020.4
20260503081007 59 360 0.0 1.7 0.00 0.00 0.00 67 1020.4
20260503080507 59 227 0.0 0.9 0.00 0.00 0.00 67 1020.4
20260503072504 60 225 0.0 1.7 0.00 0.00 0.00 65 1020.6
20260503072007 60 360 0.0 1.7 0.00 0.00 0.00 66 1020.6
20260503071516 60 360 0.0 0.9 0.00 0.00 0.00 65 1020.5
20260503071006 60 224 0.0 0.9 0.00 0.00 0.00 65 1020.5
20260503070512 60 225 0.0 0.0 0.00 0.00 0.00 65 1020.6
20260503055006 60 211 0.0 0.9 0.00 0.00 0.00 66 1020.5
20260503054529 60 191 0.0 0.9 0.00 0.00 0.00 67 1020.5
20260503054004 60 190 0.0 0.9 0.00 0.00 0.00 67 1020.5
20260503053504 60 190 0.0 0.0 0.00 0.00 0.00 68 1020.5
20260503053008 61 190 0.0 0.0 0.00 0.00 0.00 68 1020.5
20260503052506 61 190 0.0 0.0 0.00 0.00 0.00 68 1020.4
20260503052004 61 190 0.0 0.0 0.00 0.00 0.00 68 1020.3
20260503051510 62 190 0.0 0.0 0.00 0.00 0.00 68 1020.4
20260503051008 62 190 0.0 0.0 0.00 0.00 0.00 67 1020.3
20260503050503 62 190 0.0 0.0 0.00 0.00 0.00 66 1020.3
20260503050018 62 190 0.0 0.0 0.00 0.00 0.00 66 1020.3
20260503045507 63 190 0.0 0.0 0.00 0.00 0.00 65 1020.3
20260503045008 63 190 0.0 0.0 0.00 0.00 0.00 65 1020.3
20260503044520 63 190 0.0 0.0 0.00 0.00 0.00 65 1020.4
20260503044007 63 190 0.0 0.9 0.00 0.00 0.00 64 1020.3
20260503043505 63 190 0.0 0.9 0.00 0.00 0.00 64 1020.3
20260503043023 63 189 0.0 0.9 0.00 0.00 0.00 65 1020.3
20260503042504 63 189 0.0 1.7 0.00 0.00 0.00 64 1020.3
20260503042004 63 189 0.0 1.7 0.00 0.00 0.00 65 1020.3
20260503041511 64 186 0.0 0.9 0.00 0.00 0.00 65 1020.3
20260503041007 64 185 0.0 0.9 0.00 0.00 0.00 64 1020.3
20260503040504 64 184 0.0 0.0 0.00 0.00 0.00 64 1020.4
20260503040013 64 184 0.0 0.9 0.00 0.00 0.00 63 1020.4
20260503035508 64 184 0.0 0.9 0.00 0.00 0.00 62 1020.4
20260503035004 65 184 0.0 0.0 0.00 0.00 0.00 62 1020.3
20260503034533 65 184 0.0 0.9 0.00 0.00 0.00 62 1020.3
20260503034007 65 184 0.0 0.9 0.00 0.00 0.00 61 1020.3
20260503033506 65 184 0.0 0.9 0.00 0.00 0.00 61 1020.3
20260503033025 65 184 0.0 0.9 0.00 0.00 0.00 61 1020.3
20260503032508 65 184 0.0 0.9 0.00 0.00 0.00 61 1020.2
20260503032009 65 184 0.0 0.9 0.00 0.00 0.00 61 1020.2
20260503031531 65 184 0.0 0.9 0.00 0.00 0.00 61 1020.1
20260503031004 65 183 0.0 0.9 0.00 0.00 0.00 61 1020.2
20260503030504 66 96 0.0 0.9 0.00 0.00 0.00 61 1020.1
20260503030014 66 94 0.0 0.9 0.00 0.00 0.00 60 1020.1
20260503025503 66 94 0.0 0.9 0.00 0.00 0.00 59 1020.1
20260503025004 66 94 0.0 0.0 0.00 0.00 0.00 58 1020.1
20260503024514 66 94 0.0 0.0 0.00 0.00 0.00 57 1020.1
20260503024007 66 94 0.0 0.0 0.00 0.00 0.00 56 1020.1
20260503023506 67 94 0.0 0.0 0.00 0.00 0.00 56 1020.0
20260503023021 67 94 0.0 0.0 0.00 0.00 0.00 57 1020.0
20260503022504 67 94 0.0 0.0 0.00 0.00 0.00 57 1020.0
20260503022006 67 94 0.0 0.9 0.00 0.00 0.00 56 1020.0
20260503021524 67 96 0.0 0.9 0.00 0.00 0.00 55 1019.9
20260503021011 67 360 0.0 0.0 0.00 0.00 0.00 54 1019.8
20260503020509 68 360 0.0 0.0 0.00 0.00 0.00 53 1019.8
20260503020026 68 360 0.0 0.0 0.00 0.00 0.00 53 1019.7
20260503015504 68 94 0.0 0.9 0.00 0.00 0.00 53 1019.8
20260503015004 69 93 0.0 0.9 0.00 0.00 0.00 53 1019.8
20260503014516 70 90 0.0 0.0 0.00 0.00 0.00 52 1019.8
20260503014004 70 90 0.0 0.0 0.00 0.00 0.00 51 1019.8
20260503013504 70 90 0.0 0.0 0.00 0.00 0.00 50 1019.6
20260503013018 71 90 0.0 0.0 0.00 0.00 0.00 50 1019.5
20260503012507 72 90 0.0 0.0 0.00 0.00 0.00 49 1019.4
20260503012009 72 90 0.0 0.0 0.00 0.00 0.00 49 1019.4
20260503011523 73 90 0.0 0.0 0.00 0.00 0.00 49 1019.4
20260503011010 73 90 0.0 0.0 0.00 0.00 0.00 48 1019.3
20260503010506 73 90 0.0 0.0 0.00 0.00 0.00 47 1019.3
20260503010024 74 90 0.0 0.0 0.00 0.00 0.00 45 1019.3
20260503005517 74 90 0.0 0.0 0.00 0.00 0.00 44 1019.3
20260503005010 74 90 0.0 0.0 0.00 0.00 0.00 40 1019.3
20260503004528 75 90 0.0 0.9 0.00 0.00 0.00 40 1019.2
20260503004007 75 90 0.0 1.7 0.00 0.00 0.00 40 1019.1
20260503003504 76 90 0.0 1.7 0.00 0.00 0.00 39 1018.9
20260503003014 77 81 0.0 1.7 0.00 0.00 0.00 40 1019.0
20260503002504 78 81 0.0 1.7 0.00 0.00 0.00 38 1018.9
20260503002007 79 77 0.0 0.9 0.00 0.00 0.00 36 1019.0
20260503001520 79 77 0.0 0.0 0.00 0.00 0.00 36 1019.0
20260503001006 79 77 0.0 0.0 0.00 0.00 0.00 36 1018.9
20260503000507 78 77 0.0 0.0 0.00 0.00 0.00 36 1018.9
20260503000024 78 76 0.0 1.7 0.00 0.00 0.00 36 1019.0
20260502235508 78 77 0.0 1.7 0.00 0.00 0.00 36 1019.1
20260502235007 78 78 0.0 0.0 0.00 0.00 0.00 36 1019.1
20260502234524 77 78 0.0 0.0 0.00 0.00 0.00 35 1019.1
20260502234007 76 78 0.0 0.9 0.00 0.00 0.00 36 1019.2
20260502233511 77 80 0.0 0.9 0.00 0.00 0.00 35 1019.1
20260502233028 77 97 0.0 1.7 0.00 0.00 0.00 35 1019.3
20260502232503 77 97 0.0 2.6 0.00 0.00 0.00 35 1019.3
20260502232007 78 97 0.0 2.6 0.00 0.00 0.00 35 1019.3
20260502231520 78 310 0.0 2.6 0.00 0.00 0.00 35 1019.3
20260502231010 77 324 0.9 3.5 0.00 0.00 0.00 35 1019.3
20260502230508 77 276 0.0 5.2 0.00 0.00 0.00 35 1019.3
20260502230022 77 306 1.7 7.0 0.00 0.00 0.00 35 1019.3
20260502225506 77 333 0.9 7.0 0.00 0.00 0.00 36 1019.4
20260502225007 77 355 0.9 4.3 0.00 0.00 0.00 36 1019.3
20260502224525 76 58 0.0 2.6 0.00 0.00 0.00 36 1019.3
20260502224003 76 120 0.0 7.0 0.00 0.00 0.00 36 1019.3
20260502223503 76 58 0.9 7.0 0.00 0.00 0.00 36 1019.4
20260502223008 77 321 0.9 7.0 0.00 0.00 0.00 36 1019.4
20260502222504 77 42 1.7 8.7 0.00 0.00 0.00 36 1019.4
20260502222004 77 22 1.7 8.7 0.00 0.00 0.00 35 1019.4
20260502221512 77 300 0.0 3.5 0.00 0.00 0.00 36 1019.4
20260502221006 77 55 0.9 3.5 0.00 0.00 0.00 36 1019.4
20260502220504 77 278 0.0 3.5 0.00 0.00 0.00 35 1019.4
20260502220022 77 339 0.0 4.3 0.00 0.00 0.00 37 1019.5
20260502215506 76 315 0.0 4.3 0.00 0.00 0.00 37 1019.5
20260502215008 76 53 0.9 5.2 0.00 0.00 0.00 37 1019.5
20260502214528 77 320 0.0 7.0 0.00 0.00 0.00 36 1019.6
20260502214007 77 315 2.6 7.0 0.00 0.00 0.00 36 1019.6
20260502213508 78 339 0.0 3.5 0.00 0.00 0.00 35 1019.7
20260502213027 77 287 0.0 4.3 0.00 0.00 0.00 35 1019.6
20260502212503 77 324 0.0 4.3 0.00 0.00 0.00 36 1019.8
20260502212008 77 338 0.0 7.0 0.00 0.00 0.00 36 1019.9
20260502211520 76 298 0.0 7.0 0.00 0.00 0.00 35 1020.0
20260502211004 76 326 1.7 7.0 0.00 0.00 0.00 36 1020.0